Location: Castelnau
(43.6639°N, 0.8431°W)
Time: 16:56:41
(UTC+00:00)

Cosmos 1805 Rocket - Pass Details

Date: 13 January 2026
Orbit: 599 x 623 km, 82.5° (Epoch: 10 February)

Event Time Altitude Azimuth Distance (km) Brightness Sun altitude
Rises 05:32:20 0° 175° (S) 2,889 7.2 -21.6°
Reaches altitude 10° 05:34:35 10° 171° (S) 1,988 6.4 -21.2°
Maximum altitude 05:38:53 55° 94° (E) 753 4.3 -20.5°
Drops below altitude 10° 05:43:12 10° 17° (NNE) 1,999 6.2 -19.7°
Sets 05:45:28 0° 13° (NNE) 2,908 7.0 -19.3°
